Location: Newark
(5.8900°S, 42.6378°W)
Time: 22:21:32
(UTC+00:00)

Courier 1B Rocket - All Passes

Search period start: 22 September 2019 00:00
Search period end: 02 October 2019 00:00
Orbit: 920 x 1202 km, 28.2° (Epoch: 22 September)

Date Brightness Start Highest point End Pass type
(mag) Time Alt. Az. Time Alt. Az. Time Alt. Az.
22 Sep - 01:01:12 10° NW 01:06:57 37° NNE 01:12:40 10° E night (unlit)
22 Sep - 02:54:13 10° WNW 03:00:19 56° SSW 03:06:34 10° SE night (unlit)
22 Sep - 04:50:01 10° WSW 04:54:20 19° SSW 04:58:48 10° SSE visible
22 Sep - 08:42:04 10° SSW 08:45:07 13° SSE 08:48:15 10° SE daylight
22 Sep - 10:33:45 10° SW 10:40:04 30° SSE 10:46:38 10° E daylight
22 Sep - 12:26:30 10° WSW 12:34:11 85° SSE 12:42:04 10° ENE daylight
22 Sep - 14:21:24 10° W 14:28:05 31° NNW 14:34:47 10° NNE daylight
23 Sep - 00:00:51 10° NNW 00:05:54 24° NNE 00:10:51 10° E visible
23 Sep - 01:53:01 10° WNW 01:59:18 86° SSW 02:05:37 10° ESE night (unlit)
23 Sep - 03:47:55 10° WSW 03:52:59 25° SSW 03:58:12 10° SSE night (unlit)
23 Sep - 05:45:59 10° SSW 05:47:46 11° S 05:49:33 10° S visible
23 Sep - 07:42:11 10° S 07:43:20 10° S 07:44:30 10° SSE visible
23 Sep - 09:33:13 10° SSW 09:38:33 22° SSE 09:44:06 10° ESE daylight
23 Sep - 11:25:28 10° SW 11:32:50 60° SSE 11:40:31 10° ENE daylight
23 Sep - 13:19:26 10° W 13:26:43 45° NNW 13:34:07 10° NE daylight
23 Sep - 15:17:23 10° NW 15:20:58 14° NNW 15:24:32 10° N daylight
23 Sep - 23:00:56 10° N 23:04:43 16° NNE 23:08:25 10° ENE visible
24 Sep - 00:52:03 10° NW 00:58:20 61° NNE 01:04:29 10° ESE night (unlit)
24 Sep - 02:46:07 10° W 02:51:48 36° SSW 02:57:33 10° SE night (unlit)
24 Sep - 04:43:08 10° SW 04:46:08 14° SSW 04:49:12 10° SSE night (unlit)
24 Sep - 08:32:52 10° SSW 08:36:57 16° SSE 08:41:10 10° SE daylight
24 Sep - 10:24:40 10° SW 10:31:28 42° SSE 10:38:38 10° E daylight
24 Sep - 12:17:54 10° WSW 12:25:22 66° NNW 12:33:08 10° NE daylight
24 Sep - 14:13:56 10° WNW 14:19:25 21° NNW 14:24:56 10° NNE daylight
24 Sep - 22:02:56 10° NNE 22:03:23 10° NNE 22:03:49 10° NNE visible
24 Sep - 23:51:19 10° NW 23:57:19 39° NNE 00:03:07 10° E visible
25 Sep - 01:44:33 10° WNW 01:50:43 54° SSW 01:56:50 10° SE night (unlit)
25 Sep - 03:40:36 10° WSW 03:44:41 18° SSW 03:48:49 10° SSE night (unlit)
25 Sep - 07:32:48 10° S 07:35:17 12° SSE 07:37:51 10° SE visible
25 Sep - 09:24:04 10° SW 09:30:05 29° SSE 09:36:25 10° E daylight
25 Sep - 11:16:41 10° WSW 11:24:04 87° SSE 11:31:52 10° ENE daylight
25 Sep - 13:11:29 10° W 13:17:58 30° NNW 13:24:36 10° NNE daylight
25 Sep - 22:50:50 10° NNW 22:56:14 26° NNE 23:01:24 10° E visible
26 Sep - 00:43:15 10° WNW 00:49:43 84° SSW 00:55:59 10° ESE night (unlit)
26 Sep - 02:38:22 10° WSW 02:43:22 24° SSW 02:48:23 10° SSE night (unlit)
26 Sep - 04:37:21 10° SSW 04:38:04 10° S 04:38:48 10° S night (unlit)
26 Sep - 08:23:39 10° SSW 08:28:38 21° SSE 08:33:52 10° ESE daylight
26 Sep - 10:15:44 10° SW 10:22:46 60° SSE 10:30:17 10° ENE daylight
26 Sep - 12:09:35 10° W 12:16:36 44° NNW 12:23:54 10° NE daylight
26 Sep - 14:07:30 10° NW 14:10:54 13° NNW 14:14:20 10° N daylight
26 Sep - 21:50:42 10° NNW 21:55:00 17° NNE 21:59:08 10° ENE visible
26 Sep - 23:42:09 10° NW 23:48:42 64° NNE 23:54:56 10° ESE visible
27 Sep - 01:36:26 10° W 01:42:11 35° SSW 01:47:51 10° SE night (unlit)
27 Sep - 03:33:48 10° SW 03:36:29 13° SSW 03:39:12 10° SSE night (unlit)
27 Sep - 07:23:26 10° SSW 07:27:08 15° SSE 07:30:56 10° SE visible
27 Sep - 09:15:01 10° SW 09:21:30 41° SSE 09:28:25 10° E daylight
27 Sep - 11:08:07 10° WSW 11:15:17 64° NNW 11:22:54 10° NE daylight
27 Sep - 13:04:07 10° WNW 13:09:20 20° NNW 13:14:41 10° NNE daylight
27 Sep - 20:51:28 10° N 20:53:36 11° NNE 20:55:42 10° NE daylight
27 Sep - 22:41:18 10° NW 22:47:39 41° NNE 22:53:38 10° E visible
28 Sep - 00:34:45 10° WNW 00:41:06 53° SSW 00:47:13 10° SE visible
28 Sep - 02:31:03 10° WSW 02:35:03 17° SSW 02:39:01 10° SSE night (unlit)
28 Sep - 06:23:38 10° S 06:25:32 11° SSE 06:27:27 10° SSE visible
28 Sep - 08:14:30 10° SSW 08:20:12 28° SSE 08:26:13 10° E visible
28 Sep - 10:07:00 10° WSW 10:14:03 88° SE 10:21:37 10° ENE daylight
28 Sep - 12:01:43 10° W 12:07:54 29° NNW 12:14:20 10° NNE daylight
28 Sep - 21:40:40 10° NNW 21:46:29 28° NNE 21:52:00 10° E visible
28 Sep - 23:33:19 10° WNW 23:40:04 82° SSW 23:46:26 10° ESE visible
29 Sep - 01:28:40 10° WSW 01:33:44 24° SSW 01:38:42 10° SSE night (unlit)
29 Sep - 07:14:10 10° SSW 07:18:50 20° SSE 07:23:43 10° ESE visible
29 Sep - 09:06:07 10° SW 09:12:50 61° SSE 09:20:04 10° ENE daylight
29 Sep - 10:59:54 10° W 11:06:34 42° NNW 11:13:38 10° NE daylight
29 Sep - 12:57:55 10° NW 13:00:52 12° NNW 13:03:53 10° N daylight
29 Sep - 20:40:21 10° NNW 20:45:11 19° NNE 20:49:49 10° ENE daylight
29 Sep - 22:32:07 10° NW 22:39:00 67° NNE 22:45:26 10° ESE visible
30 Sep - 00:26:36 10° W 00:32:33 35° SSW 00:38:16 10° SE visible
30 Sep - 02:24:15 10° SW 02:26:51 13° SSW 02:29:26 10° S night (unlit)
30 Sep - 06:14:03 10° SSW 06:17:23 14° SSE 06:20:49 10° SE visible
30 Sep - 08:05:28 10° SW 08:11:39 41° SSE 08:18:14 10° E visible
30 Sep - 09:58:30 10° WSW 10:05:19 61° NNW 10:12:38 10° NE daylight
30 Sep - 11:54:29 10° WNW 11:59:19 19° NNW 12:04:19 10° NNE daylight
30 Sep - 19:40:40 10° N 19:43:45 13° NNE 19:46:44 10° NE daylight
30 Sep - 21:31:08 10° NW 21:37:52 44° NNE 21:44:11 10° E visible
30 Sep - 23:24:48 10° WNW 23:31:26 53° SSW 23:37:40 10° SE visible
01 Oct - 01:21:18 10° WSW 01:25:24 17° SSW 01:29:24 10° SSE night (unlit)
01 Oct - 05:14:29 10° S 05:15:50 11° SSE 05:17:12 10° SSE visible
01 Oct - 07:04:58 10° SSW 07:10:26 28° SSE 07:16:07 10° E visible
01 Oct - 08:57:24 10° WSW 09:04:08 90° NNW 09:11:24 10° ENE daylight
01 Oct - 10:52:08 10° W 10:57:55 27° NNW 11:04:01 10° NNE daylight
01 Oct - 20:30:24 10° NNW 20:36:38 30° NNE 20:42:33 10° E daylight
01 Oct - 22:23:15 10° WNW 22:30:20 80° SSW 22:36:55 10° ESE visible
